Find Starlink 2346

NORAD ID: 47887 Int'l Des: 2021-021 Owner: SPXS Country: US Constellation: starlink operational
LEOCIRCULARSTARLINK_TYPE

現在のビュー

3D地球を読み込み中...

About Starlink 2346

Starlink 2346 (NORAD 47887) is a starlink constellation satellite (v1.0) launched Mar 14, 2021 by SPXS of US. It operates in LEO, CIRCULAR, STARLINK_TYPE orbit with a mass of 260.00 kg.

Starlink 2346について

説明を読み込み中...

次回通過

Passes for default location (London). Set your location on the main map for personalized predictions.

高度履歴

Loading altitude history...

軌道要素

1 47887U 21021AD 26169.28547867 .00000340 00000-0 22728-4 0 9993
2 47887 53.1590 172.9897 0001151 77.1940 282.9190 15.31702516291473
Epoch: Jun 18, 2026 • Age: 14 hours

現在のステータス

高度 489.2 km
速度 7.62 km/s
衛星直下点 -51.03°S, 157.03°W
打ち上げ日 Mar 14, 2021
運用期間 5.2 years
タイプ internet

技術仕様

分類 Payload
質量 260.00 kg
乾燥質量 248.00 kg
総質量 260.00 kg
長さ 0.20 m
直径 2.80 m
スパン 9.00 m
形状 Box + pan
製造者 SPXS
バスタイプ Starlink
フェーズステータス In Orbit
所有者/国 SPXS/US

Most Searched